Flag for U.S.A. Weather past 2 weeks in Lakeland, Florida, U.S.A.

Now
73 °F

Clear.


Feels Like: 68 °F
Forecast: 74 / 91 °F
Wind: 3 mph from Northeast

Location: Lakeland Regional

Current Time: Aug 31, 2014 at 4:46:39 AM

Latest Report: Aug 31, 2014 at 4:15 AM


Visibility: 10 mi

Pressure: 30.12 "Hg

Humidity: 100%

Dew point: 73 °F

Location of LakelandLocation

Historic Weather in Lakeland — Graph

°F

Lakeland temperature yesterday

Maximum temperature yesterday: 93 °F (at 2:50 PM)
Minimum temperature yesterday: 72 °F (at 12:55 AM)
Average temperature yesterday: 80 °F

Past Weeks' High & Low Weather Summary

 TemperatureHumidityPressure
High97 °F (Aug 22, 4:50 PM)100% (Aug 16, 8:50 AM)30.15 "Hg (Aug 16, 8:50 AM)
Low72 °F (Aug 29, 11:35 PM)34% (Aug 22, 4:50 PM)29.76 "Hg (Aug 24, 4:53 PM)
Average81 °F79%30.01 "Hg
* Reported Aug 16 3:15 AM — Aug 31 3:55 AM, Lakeland, Weather by CustomWeather, © 2014

Note: Actual official high and low records may vary slightly from our data, if they occured in-between our weather recording intervals... More about our weather records

Advertising

Lakeland weather history for previous 24 hours

 ConditionsComfort  
Time TempWeatherWind HumidityBarometerVisibility
3:55 AM
Aug 31
73 °FClear.3 mph100%30.12 "Hg10 mi
3:15 AM73 °FClear.3 mph100%30.13 "Hg10 mi
2:55 AM73 °FClear.No wind100%30.14 "Hg10 mi
2:35 AM73 °FClear.No wind100%30.14 "Hg10 mi
2:15 AM73 °FClear.5 mph100%30.15 "Hg10 mi
1:55 AM73 °FClear.No wind100%30.15 "Hg10 mi
1:15 AM73 °FClear.No wind100%30.15 "Hg10 mi
12:55 AM75 °FClear.No wind89%30.15 "Hg10 mi
12:35 AM75 °FClear.3 mph89%30.15 "Hg10 mi
12:15 AM75 °FClear.No wind89%30.15 "Hg10 mi
11:55 PM
Aug 30
73 °FClear.3 mph94%30.15 "Hg10 mi
11:35 PM75 °FClear.3 mph83%30.15 "Hg10 mi
11:15 PM75 °FPassing clouds.No wind89%30.15 "Hg10 mi
10:55 PM75 °FPassing clouds.No wind89%30.13 "Hg10 mi
10:35 PM75 °FClear.No wind89%30.13 "Hg10 mi
10:15 PM77 °FClear.No wind79%30.13 "Hg10 mi
9:50 PM75 °FClear.No wind89%30.13 "Hg10 mi
8:50 PM75 °FScattered clouds.No wind89%30.10 "Hg10 mi
7:50 PM79 °FScattered clouds.No wind74%30.09 "Hg10 mi
6:50 PM79 °FScattered clouds.7 mph74%30.09 "Hg12 mi
4:50 PM91 °FScattered clouds.12 mph46%30.04 "Hg12 mi
3:50 PM93 °FScattered clouds.3 mph47%30.06 "Hg12 mi
2:50 PM93 °FScattered clouds.8 mph47%30.08 "Hg12 mi
1:54 PM90 °FScattered clouds.No wind55%30.11 "Hg12 mi
12:54 PM90 °FScattered clouds.5 mph55%30.12 "Hg12 mi
11:52 AM90 °FScattered clouds.7 mph59%30.14 "Hg12 mi
10:50 AM86 °FPassing clouds.7 mph70%30.15 "Hg12 mi
9:50 AM82 °FSunny.8 mph79%30.15 "Hg12 mi
8:50 AM79 °FSunny.5 mph79%30.15 "Hg12 mi
7:50 AM75 °FClear.No wind89%30.13 "Hg12 mi
6:56 AM75 °FPassing clouds.No wind89%30.13 "Hg12 mi
5:56 AM75 °FPassing clouds.13 mph89%30.12 "Hg10 mi
5:35 AMN/AClear.No windN/A30.11 "Hg10 mi
5:15 AMN/AClear.No windN/A30.11 "Hg10 mi
4:55 AMN/AClear.No windN/A30.11 "Hg10 mi
4:35 AMN/AClear.No windN/A30.11 "Hg10 mi
4:15 AMN/AClear.No windN/A30.11 "Hg10 mi
Weather by CustomWeather, © 2014

See weather overviewHow to use our weather pages